Погода в Малиновке

Россия / Сахалинская область     49°27′49″N   142°54′23″E
темп.,
°C
ветер,
м/с
пор.,
м/с
влажн.,
%
обл.,
%
осадки,
мм/ч
давл.,
гПа
погр.,
м
18 мая, вт
вт1823:00+5юв25820 0.0 1004126
02:00+4в11850 0.0 100534
05:00+4юв11850 0.0 100517
08:00+9юв22685 0.0 1005149
11:00+17юв34460 0.0 1004538
14:00+24ююз36270 0.0 10031766
17:00+23ююз68262 0.0 10021170
20:00+18ююз47441 0.0 1003136
19 мая, ср
ср1923:00+14ю2442100 0.0 100465
02:00+13юв114873 0.0 100433
05:00+9св116430 0.0 100429
08:00+11всв22622 0.0 1004124
11:00+21юв36390 0.0 1003598
14:00+27юз710250 0.0 10011956
17:00+26ююз592823 0.0 10021549
20:00+17ю2264100 0.8 100442
20 мая, чт
чт2023:00+13ссв2377100 1.5 1007102
02:00+10с2385100 0.6 100998
05:00+8ююв11862 0.6 101039
08:00+8ююв34825 0.0 1011250
11:00+13ююв45650 0.0 1009643
14:00+17ююв56571 0.0 1007640
17:00+18юв56545 0.0 1004396
20:00+17в22655 0.0 100391
21 мая, пт
пт2123:00+12с2290100 1.3 100468
02:00+12юв1189100 1.6 100416
05:00+10с339496 1.7 100459
08:00+13всв22845 0.0 1007266
11:00+14ю3280100 0.0 1008595
14:00+14ю5572100 0.0 1008559
17:00+10ю796846 0.0 1009475
20:00+6ю697449 0.0 1010378
22 мая, сб
сб2223:00+4ююв3681100 0.0 1012316
02:00+4ю2379100 0.0 1011247
05:00+4ююз1279100 0.0 1012196
08:00+5ююв2378100 0.0 1013282
11:00+6ю3477100 0.0 1014373
14:00+7ю3472100 0.0 1015410
17:00+8ю3468100 0.0 1015493
20:00+7ю3466100 0.0 1015268